Weather History for Southern Pines, NC

Change the Weather History Date:

Monday, December 23, 2013

  Actual Average Record
Temperature  
Mean Temperature 58 °F -  
Max Temperature 68 °F 49 °F 69 °F (2006)
Min Temperature 48 °F 29 °F 17 °F (2000)
Degree Days  
Heating Degree Days 7    
Growing Degree Days 8 (Base 50)    
Moisture  
Dew Point 57 °F    
Average Humidity 86    
Maximum Humidity 88    
Minimum Humidity 76    
Precipitation  
Precipitation 1.14 in - - ()
Sea Level Pressure  
Sea Level Pressure 30.08 in    
Wind  
Wind Speed 7 mph (WSW)    
Max Wind Speed 15 mph    
Max Gust Speed 22 mph    
Visibility 9 miles    
Events      
Averages and records for this station are not official NWS values.
T = Trace of Precipitation, MM = Missing Value Source: NWS Daily Summary

Daily Weather History Graph

Daily Weather History Graph

Search for Another Location

Airport:

Trip Planner

Search our weather history database for the weather conditions in past years. The results will help you decide how hot, cold, wet, or windy it might be!

Date:

Astronomy

Dec. 23, 2013 Rise Set
Actual Time 7:23 AM EST 5:10 PM EST
Civil Twilight 6:55 AM EST 5:38 PM EST
Nautical Twilight 6:23 AM EST 6:10 PM EST
Astronomical Twilight 5:52 AM EST 6:41 PM EST
Moon 11:05 PM EST (12/23) 10:59 AM EST (12/23)
Length of Visible Light 10h 43m
Length of Day
9h 46m
Waning Gibbous, 68% of the Moon is Illuminated
Dec 23
Waning Gibbous
Dec 25
Last Quarter
Jan 1
New
Jan 7
First Quarter
Jan 15
Full

Hourly Weather History & Observations

Time (EST) Temp. Dew Point Humidity Pressure Visibility Wind Dir Wind Speed Gust Speed Precip Events Conditions
12:15 AM 66.2 °F 60.8 °F 83% 30.10 in 9.0 mi WSW 12.7 mph 20.7 mph 0.08 in   Overcast
12:35 AM 64.4 °F 60.8 °F 88% 30.09 in 10.0 mi WSW 5.8 mph - 0.08 in   Overcast
12:55 AM 64.4 °F 60.8 °F 88% 30.09 in 10.0 mi WSW 5.8 mph - 0.08 in   Overcast
1:15 AM 64.4 °F 60.8 °F 88% 30.09 in 10.0 mi SW 4.6 mph - 0.01 in   Overcast
1:35 AM 64.4 °F 60.8 °F 88% 30.09 in 9.0 mi SSW 5.8 mph - 0.18 in   Overcast
1:55 AM 64.4 °F 60.8 °F 88% 30.08 in 10.0 mi Calm Calm - 0.20 in   Overcast
2:15 AM 64.4 °F 60.8 °F 88% 30.08 in 7.0 mi South 4.6 mph - 0.21 in   Overcast
2:35 AM 64.4 °F 60.8 °F 88% 30.08 in 10.0 mi Calm Calm - 0.23 in   Overcast
2:55 AM 64.4 °F 60.8 °F 88% 30.08 in 10.0 mi Calm Calm - 0.23 in   Overcast
3:15 AM 64.4 °F 60.8 °F 88% 30.07 in 10.0 mi Calm Calm - N/A   Overcast
3:35 AM 64.4 °F 60.8 °F 88% 30.06 in 10.0 mi Calm Calm - N/A   Overcast
3:55 AM 64.4 °F 60.8 °F 88% 30.06 in 10.0 mi Calm Calm - N/A   Overcast
4:15 AM 64.4 °F 60.8 °F 88% 30.05 in 10.0 mi Calm Calm - 0.01 in   Overcast
4:35 AM 64.4 °F 60.8 °F 88% 30.05 in 10.0 mi South 4.6 mph - 0.01 in   Overcast
4:55 AM 66.2 °F 62.6 °F 88% 30.04 in 10.0 mi SSW 9.2 mph - 0.01 in   Overcast
5:15 AM 66.2 °F 62.6 °F 88% 30.04 in 10.0 mi SSW 10.4 mph - N/A   Overcast
5:35 AM 66.2 °F 62.6 °F 88% 30.03 in 10.0 mi SSW 11.5 mph - N/A   Overcast
5:55 AM 66.2 °F 62.6 °F 88% 30.04 in 10.0 mi SSW 15.0 mph - N/A   Overcast
6:15 AM 68.0 °F 64.4 °F 88% 30.04 in 10.0 mi SSW 13.8 mph 19.6 mph N/A   Overcast
6:35 AM 68.0 °F 64.4 °F 88% 30.05 in 10.0 mi SSW 13.8 mph 20.7 mph N/A   Overcast
6:55 AM 68.0 °F 64.4 °F 88% 30.05 in 10.0 mi SSW 15.0 mph 21.9 mph N/A   Overcast
7:15 AM 68.0 °F 64.4 °F 88% 30.06 in 10.0 mi SW 11.5 mph 17.3 mph 0.01 in   Overcast
7:35 AM 68.0 °F 64.4 °F 88% 30.06 in 10.0 mi SW 13.8 mph 18.4 mph 0.01 in   Overcast
7:55 AM 68.0 °F 64.4 °F 88% 30.07 in 10.0 mi SW 11.5 mph 18.4 mph 0.01 in   Overcast
8:15 AM 68.0 °F 64.4 °F 88% 30.08 in 10.0 mi Calm Calm - N/A   Overcast
8:35 AM 66.2 °F 62.6 °F 88% 30.08 in 10.0 mi West 8.1 mph - 0.07 in   Overcast
8:55 AM 64.4 °F 60.8 °F 88% 30.09 in 9.0 mi West 8.1 mph - 0.19 in   Mostly Cloudy
9:15 AM 64.4 °F 60.8 °F 88% 30.08 in 10.0 mi West 5.8 mph - N/A   Mostly Cloudy
9:35 AM 64.4 °F 60.8 °F 88% 30.09 in 10.0 mi SW 9.2 mph - N/A   Overcast
9:55 AM 64.4 °F 60.8 °F 88% 30.10 in 10.0 mi WSW 5.8 mph - 0.01 in   Overcast
10:15 AM 66.2 °F 60.8 °F 83% 30.10 in 10.0 mi WSW 10.4 mph - N/A   Overcast
10:35 AM 66.2 °F 60.8 °F 83% 30.09 in 8.0 mi WSW 9.2 mph 16.1 mph 0.01 in   Overcast
10:55 AM 66.2 °F 60.8 °F 83% 30.08 in 10.0 mi WSW 10.4 mph 17.3 mph 0.01 in   Overcast
11:15 AM 66.2 °F 60.8 °F 83% 30.08 in 10.0 mi SW 10.4 mph - N/A   Overcast
11:35 AM 66.2 °F 62.6 °F 88% 30.07 in 10.0 mi SSW 8.1 mph - N/A   Overcast
11:55 AM 66.2 °F 60.8 °F 83% 30.07 in 10.0 mi WSW 10.4 mph - N/A   Overcast
12:15 PM 66.2 °F 60.8 °F 83% 30.07 in 9.0 mi SW 10.4 mph - 0.04 in   Overcast
12:35 PM 64.4 °F 60.8 °F 88% 30.04 in 10.0 mi SW 11.5 mph 17.3 mph 0.07 in   Overcast
12:55 PM 64.4 °F 60.8 °F 88% 30.03 in 10.0 mi SSW 9.2 mph - 0.11 in   Overcast
1:15 PM 64.4 °F 60.8 °F 88% 30.02 in 10.0 mi SSW 9.2 mph - 0.01 in   Overcast
1:35 PM 64.4 °F 60.8 °F 88% 30.02 in 10.0 mi SSW 9.2 mph - 0.03 in   Overcast
1:55 PM 64.4 °F 60.8 °F 88% 30.02 in 10.0 mi SW 9.2 mph - 0.06 in   Overcast
2:15 PM 64.4 °F 60.8 °F 88% 30.01 in 10.0 mi SW 8.1 mph - 0.03 in   Overcast
2:35 PM 64.4 °F 60.8 °F 88% 30.02 in 10.0 mi SW 8.1 mph - 0.04 in   Overcast
2:55 PM 64.4 °F 60.8 °F 88% 30.02 in 10.0 mi WSW 8.1 mph - 0.05 in   Overcast
3:15 PM 64.4 °F 60.8 °F 88% 30.02 in 7.0 mi WSW 6.9 mph - N/A   Overcast
3:35 PM 62.6 °F 57.2 °F 82% 30.04 in 5.0 mi NW 6.9 mph 16.1 mph 0.04 in   Overcast
3:55 PM 60.8 °F 57.2 °F 88% 30.04 in 5.0 mi NNW 5.8 mph - 0.04 in   Overcast
4:15 PM 60.8 °F 55.4 °F 82% 30.06 in 3.0 mi North 4.6 mph - 0.02 in   Overcast
4:35 PM 57.2 °F 53.6 °F 88% 30.07 in 5.0 mi North 4.6 mph - 0.06 in   Overcast
4:55 PM 55.4 °F 51.8 °F 88% 30.07 in 3.0 mi North 4.6 mph - 0.06 in   Overcast
5:15 PM 55.4 °F 51.8 °F 88% 30.09 in 3.0 mi Calm Calm - 0.01 in   Mostly Cloudy
5:35 PM 55.4 °F 51.8 °F 88% 30.09 in 5.0 mi Calm Calm - 0.02 in   Mostly Cloudy
5:55 PM 55.4 °F 51.8 °F 88% 30.08 in 7.0 mi North 4.6 mph - 0.03 in   Mostly Cloudy
6:15 PM 55.4 °F 51.8 °F 88% 30.09 in 9.0 mi Calm Calm - N/A   Mostly Cloudy
6:35 PM 55.4 °F 51.8 °F 88% 30.09 in 9.0 mi Calm Calm - N/A   Overcast
6:55 PM 55.4 °F 51.8 °F 88% 30.11 in 4.0 mi North 13.8 mph 20.7 mph 0.01 in   Overcast
7:15 PM 51.8 °F 48.2 °F 88% 30.12 in 7.0 mi NNE 5.8 mph - 0.01 in   Overcast
7:35 PM 51.8 °F 46.4 °F 82% 30.12 in 10.0 mi NE 9.2 mph - 0.01 in   Mostly Cloudy
7:55 PM 51.8 °F 46.4 °F 82% 30.12 in 10.0 mi NE 4.6 mph - 0.02 in   Overcast
8:15 PM 51.8 °F 44.6 °F 76% 30.13 in 10.0 mi Calm Calm - N/A   Overcast
8:35 PM 51.8 °F 44.6 °F 76% 30.13 in 10.0 mi NE 4.6 mph - N/A   Overcast
8:55 PM 50.0 °F 44.6 °F 82% 30.14 in 10.0 mi Calm Calm - 0.01 in   Overcast
9:15 PM 50.0 °F 44.6 °F 82% 30.13 in 10.0 mi Calm Calm - N/A   Overcast
9:35 PM 50.0 °F 44.6 °F 82% 30.14 in 10.0 mi Calm Calm - 0.01 in   Overcast
9:55 PM 50.0 °F 44.6 °F 82% 30.13 in 10.0 mi Calm Calm - 0.01 in   Overcast
10:15 PM 50.0 °F 44.6 °F 82% 30.15 in 10.0 mi Calm Calm - N/A   Overcast
10:35 PM 50.0 °F 44.6 °F 82% 30.14 in 10.0 mi Calm Calm - N/A   Overcast
10:55 PM 50.0 °F 44.6 °F 82% 30.14 in 10.0 mi North 4.6 mph - N/A   Overcast
11:15 PM 50.0 °F 42.8 °F 76% 30.14 in 10.0 mi Calm Calm - N/A   Overcast
11:35 PM 48.2 °F 42.8 °F 82% 30.15 in 10.0 mi Calm Calm - N/A   Overcast
11:55 PM 48.2 °F 42.8 °F 82% 30.14 in 10.0 mi Calm Calm - N/A   Overcast